Retour au catalogue

STARLINK-5422

ActifCommunicationsVLEO
NORAD 54804·PAYLOAD·🇺🇸 United States

Lancé Dec 17, 2022 depuis Cape Canaveral Space Force Station

Loading…

Prochains Passages (prochaines 24 heures)

TLE

FraisSource: CelesTrak SupGP

Époque: Sep 15, 2026, 01:16 UTC

1 54804C 22175AY  26258.05326389 -.00015836  00000+0 -46788-3 0  2585
2 54804  53.1581 242.8960 0001322  90.9985  69.8413 15.34397965    19

Suivez STARLINK-5422 en temps réel avec AllMySat

Download on the App Store